�N����,����,�~����,�C��,���x,�C��,����,���ϕ���,�ő�u�ԕ���,�ő厞����,���˗�,�I�_���x,�n�����x,�ő啗���N��,DTYPE
"21/07/12","00:10",0.0,22.8,91.8,1008.3,295.0,0.8,1.3,312.5,0.00,21.4,25.9,"00:00:08",1
"21/07/12","00:20",0.0,22.8,91.9,1008.8,293.2,1.1,1.4,262.6,0.00,21.5,25.7,"00:11:20",1
"21/07/12","00:30",0.0,22.8,92.1,1008.3,308.4,1.1,1.9,315.2,0.00,21.5,25.7,"00:28:48",1
"21/07/12","00:40",0.0,22.8,92.2,1008.3,334.7,1.2,2.5,334.8,0.00,21.5,25.6,"00:30:56",1
"21/07/12","00:50",0.0,22.7,92.3,1008.1,289.4,1.1,1.4,317.0,0.00,21.4,25.8,"00:42:16",1
"21/07/12","01:00",0.0,22.7,92.5,1007.6,286.8,1.1,1.4,305.2,0.00,21.5,25.6,"00:51:12",1
"21/07/12","01:10",0.0,22.7,92.6,1007.6,296.4,1.1,1.4,276.8,0.00,21.5,25.6,"01:06:32",1
"21/07/12","01:20",0.0,22.6,92.7,1007.8,315.4,1.2,1.8,339.4,0.00,21.4,25.4,"01:14:48",1
"21/07/12","01:30",0.0,22.6,92.8,1007.6,308.5,1.2,2.0,332.5,0.00,21.4,25.5,"01:29:04",1
"21/07/12","01:40",0.0,22.5,92.9,1007.6,307.4,1.0,1.7,337.5,0.00,21.3,25.4,"01:31:12",1
"21/07/12","01:50",0.0,22.4,93.0,1007.6,308.7,1.1,1.4,328.4,0.00,21.3,25.3,"01:46:00",1
"21/07/12","02:00",0.0,22.3,93.1,1007.6,324.3,1.2,1.7,318.7,0.00,21.2,25.4,"01:54:56",1
"21/07/12","02:10",0.0,22.1,93.3,1007.6,305.6,1.0,1.4,316.1,0.00,21.0,25.4,"02:09:28",1
"21/07/12","02:20",0.0,22.2,93.3,1007.4,329.9,1.2,1.7,322.4,0.00,21.1,25.5,"02:18:00",1
"21/07/12","02:30",0.0,22.0,93.4,1007.4,311.0,0.8,1.3,329.3,0.00,20.9,25.4,"02:20:08",1
"21/07/12","02:40",0.0,21.8,93.5,1007.4,306.0,1.0,1.4,326.2,0.00,20.7,25.4,"02:30:02",1
"21/07/12","02:50",0.0,21.8,93.6,1007.4,315.5,1.0,1.6,326.9,0.00,20.8,25.3,"02:40:40",1
"21/07/12","03:00",0.0,21.9,93.7,1007.6,313.9,1.1,1.9,325.7,0.00,20.9,25.2,"02:56:16",1
"21/07/12","03:10",0.0,21.9,93.8,1007.4,318.5,1.0,1.4,325.4,0.00,20.9,25.3,"03:00:24",1
"21/07/12","03:20",0.0,21.9,93.9,1007.4,307.5,1.1,1.8,337.5,0.00,20.9,25.2,"03:19:20",1
"21/07/12","03:30",0.0,21.9,93.9,1007.1,316.2,1.1,1.6,319.8,0.00,20.9,25.3,"03:27:52",1
"21/07/12","03:40",0.0,21.9,94.0,1007.6,327.8,1.3,1.6,324.8,0.00,20.9,25.2,"03:32:56",1
"21/07/12","03:50",0.0,21.9,94.1,1007.4,310.2,1.1,1.6,323.2,0.00,20.9,25.2,"03:41:04",1
"21/07/12","04:00",0.0,21.9,94.2,1007.1,312.1,1.1,1.8,336.6,0.00,21.0,25.1,"03:57:20",1
"21/07/12","04:10",0.0,22.0,94.2,1007.4,329.8,1.1,1.6,325.3,0.00,21.1,25.2,"04:08:48",1
"21/07/12","04:20",0.0,21.9,94.3,1007.1,301.7,1.2,1.6,327.6,0.00,21.0,25.1,"04:12:16",1
"21/07/12","04:30",0.0,21.8,94.3,1007.4,298.4,0.8,1.1,320.6,0.00,20.9,25.0,"04:28:40",1
"21/07/12","04:40",0.0,21.8,94.4,1007.8,314.3,0.8,1.6,322.4,0.00,20.9,25.0,"04:38:24",1
"21/07/12","04:50",0.0,21.9,94.6,1007.1,327.1,1.2,1.8,318.5,0.00,21.0,25.1,"04:48:08",1
"21/07/12","05:00",0.0,21.9,94.6,1007.6,329.4,1.5,1.7,335.4,0.00,21.0,24.9,"04:57:28",1
"21/07/12","05:10",0.0,21.8,94.7,1007.8,314.3,1.2,1.3,328.3,0.00,21.0,24.9,"05:01:12",1
"21/07/12","05:20",0.0,21.8,94.7,1007.8,289.8,1.0,1.2,305.5,0.00,21.0,25.0,"05:10:24",1
"21/07/12","05:30",0.0,21.8,94.8,1008.1,306.6,1.1,1.4,313.7,0.00,21.0,24.9,"05:25:12",1
"21/07/12","05:40",0.0,21.9,94.9,1008.3,305.9,1.2,1.9,327.3,0.00,21.1,24.9,"05:39:28",1
"21/07/12","05:50",0.0,22.1,94.9,1008.3,317.7,1.2,1.6,330.0,0.01,21.3,24.9,"05:40:16",1
"21/07/12","06:00",0.0,22.3,94.9,1008.1,294.8,0.5,1.0,318.2,0.01,21.5,24.6,"05:59:28",1
"21/07/12","06:10",0.0,22.4,94.9,1008.1,317.7,0.6,1.1,323.4,0.02,21.6,24.7,"06:01:52",1
"21/07/12","06:20",0.0,22.6,94.9,1008.3,311.2,0.8,1.3,322.8,0.02,21.8,24.9,"06:16:40",1
"21/07/12","06:30",0.0,22.8,94.9,1008.3,309.9,1.0,1.3,301.7,0.03,22.0,24.7,"06:22:08",1
"21/07/12","06:40",0.0,23.1,95.0,1008.3,331.9,1.0,1.3,336.2,0.04,22.3,24.7,"06:30:56",1
"21/07/12","06:50",0.0,23.3,95.1,1008.1,290.9,0.6,0.9,316.8,0.07,22.5,24.6,"06:41:20",1
"21/07/12","07:00",0.0,23.9,95.0,1007.6,278.8,0.5,0.9,289.3,0.10,23.1,24.6,"06:53:20",1
"21/07/12","07:10",0.0,24.3,94.8,1007.8,281.1,0.3,1.2,337.3,0.09,23.5,24.6,"07:00:02",1
"21/07/12","07:20",0.0,24.4,94.6,1007.6,272.4,0.6,1.1,322.8,0.08,23.5,24.7,"07:10:24",1
"21/07/12","07:30",0.0,24.9,94.7,1008.1,290.6,0.6,1.3,340.1,0.11,24.0,24.8,"07:20:02",1
"21/07/12","07:40",0.0,25.0,94.4,1008.1,276.5,0.5,1.3,250.2,0.15,24.1,24.9,"07:36:08",1
"21/07/12","07:50",0.0,25.2,94.2,1008.1,244.6,0.5,1.2,313.9,0.13,24.2,24.8,"07:48:00",1
"21/07/12","08:00",0.0,24.9,93.7,1007.6,300.8,0.5,1.8,352.2,0.16,23.9,24.8,"07:59:12",1
"21/07/12","08:10",0.0,25.4,93.2,1007.6,333.2,0.5,1.3,348.3,0.21,24.3,24.8,"08:05:20",1
"21/07/12","08:20",0.0,25.3,92.1,1007.1,358.3,0.7,1.9,336.8,0.18,24.0,24.8,"08:19:36",1
"21/07/12","08:30",0.0,25.6,91.6,1006.7,348.9,1.1,1.8,355.2,0.15,24.2,24.9,"08:25:44",1
"21/07/12","08:40",0.0,26.5,90.6,1006.9,25.1,0.6,1.4,346.9,0.25,24.9,25.0,"08:30:32",1
"21/07/12","08:50",0.0,26.9,87.6,1007.4,21.8,0.5,1.6,4.7,0.22,24.7,25.0,"08:46:48",1
"21/07/12","09:00",0.0,28.1,85.4,1007.6,90.3,0.3,1.3,110.6,0.31,25.5,24.9,"08:51:36",1
"21/07/12","09:10",0.0,28.7,79.6,1008.1,89.1,0.7,1.9,356.6,0.32,24.9,24.9,"09:09:44",1
"21/07/12","09:20",0.0,28.3,76.5,1007.8,346.0,1.0,2.4,350.5,0.18,23.8,25.1,"09:14:40",1
"21/07/12","09:30",0.0,28.3,76.5,1007.4,4.2,0.7,1.7,8.2,0.17,23.8,25.1,"09:24:32",1
"21/07/12","09:40",0.0,28.8,76.9,1007.6,149.8,0.3,1.2,109.1,0.24,24.4,25.1,"09:30:08",1
"21/07/12","09:50",0.0,28.8,75.0,1007.4,349.8,0.8,1.4,337.3,0.21,24.0,25.2,"09:46:32",1
"21/07/12","10:00",0.0,29.1,74.7,1007.8,173.3,0.3,1.2,134.6,0.23,24.2,25.2,"09:53:04",1
"21/07/12","10:10",0.0,29.1,73.8,1007.6,115.8,0.5,1.3,93.2,0.21,24.0,25.3,"10:01:36",1
"21/07/12","10:20",0.0,30.2,73.6,1007.8,134.8,0.7,1.7,112.1,0.41,25.0,25.4,"10:17:04",1
"21/07/12","10:30",0.0,30.8,71.7,1008.3,165.2,0.7,1.8,120.6,0.42,25.1,25.4,"10:26:40",1
"21/07/12","10:40",0.0,30.2,69.8,1008.3,30.8,1.0,1.9,73.2,0.19,24.1,25.4,"10:34:16",1
"21/07/12","10:50",0.0,29.8,70.8,1007.8,225.2,0.6,1.7,209.7,0.14,24.0,25.5,"10:46:32",1
"21/07/12","11:00",0.0,29.5,71.9,1007.6,203.4,0.7,1.9,248.0,0.15,23.9,25.7,"10:57:52",1
"21/07/12","11:10",0.0,29.5,73.0,1007.1,217.4,0.7,2.2,207.4,0.16,24.2,25.3,"11:08:56",1
"21/07/12","11:20",0.0,29.4,73.3,1006.9,284.4,0.7,2.6,237.4,0.16,24.2,25.6,"11:10:32",1
"21/07/12","11:30",0.0,29.3,72.9,1006.9,317.9,0.8,1.9,319.4,0.15,24.0,25.6,"11:23:12",1
"21/07/12","11:40",0.0,29.3,74.0,1006.7,331.6,1.2,2.6,326.8,0.18,24.2,25.5,"11:37:52",1
"21/07/12","11:50",0.0,29.2,73.8,1006.4,328.7,1.2,2.9,345.0,0.17,24.1,25.6,"11:44:40",1
"21/07/12","12:00",0.0,29.2,74.1,1006.4,298.8,1.0,2.2,353.7,0.15,24.1,25.5,"11:55:28",1
"21/07/12","12:10",0.0,28.9,74.5,1006.0,323.8,1.3,2.9,348.4,0.13,23.9,25.6,"12:03:12",1
"21/07/12","12:20",0.0,28.7,75.3,1005.7,333.3,1.2,2.5,0.3,0.11,23.9,25.8,"12:12:24",1
"21/07/12","12:30",0.0,28.5,75.9,1005.5,341.0,1.3,2.4,344.0,0.09,23.9,25.7,"12:21:44",1
"21/07/12","12:40",0.0,28.1,76.0,1005.2,295.3,1.5,3.2,342.5,0.04,23.5,25.9,"12:31:52",1
"21/07/12","12:50",0.4,27.5,77.7,1004.5,306.5,1.6,4.1,346.8,0.01,23.3,25.9,"12:41:44",1
"21/07/12","13:00",0.2,26.7,79.5,1004.8,325.6,2.0,4.8,342.6,0.03,22.9,25.8,"12:52:24",1
"21/07/12","13:10",0.0,26.4,81.3,1005.0,320.0,1.3,4.0,14.2,0.05,23.0,25.8,"13:04:24",1
"21/07/12","13:20",0.4,26.2,82.8,1004.5,335.2,1.1,3.1,343.2,0.04,23.1,26.0,"13:19:44",1
"21/07/12","13:30",0.2,25.9,84.2,1005.2,262.6,1.2,1.9,242.0,0.05,23.1,26.0,"13:26:08",1
"21/07/12","13:40",0.0,25.6,85.1,1005.0,309.2,1.2,2.9,350.9,0.07,22.9,25.8,"13:39:52",1
"21/07/12","13:50",0.2,25.3,85.9,1005.0,349.7,2.2,5.0,332.2,0.12,22.8,25.8,"13:45:28",1
"21/07/12","14:00",0.0,25.5,86.1,1005.2,326.3,1.5,2.8,359.4,0.18,23.0,26.0,"13:51:28",1
"21/07/12","14:10",0.0,25.7,85.6,1005.5,319.1,1.6,3.6,343.4,0.20,23.1,25.9,"14:06:56",1
"21/07/12","14:20",0.0,26.1,85.2,1005.5,289.6,1.2,2.8,343.3,0.21,23.5,25.6,"14:12:32",1
"21/07/12","14:30",0.0,26.2,83.4,1005.7,267.3,1.1,2.7,217.6,0.16,23.2,25.9,"14:29:52",1
"21/07/12","14:40",0.0,26.3,82.5,1006.0,261.9,1.3,2.5,242.7,0.13,23.1,25.7,"14:36:08",1
"21/07/12","14:50",0.0,26.8,81.3,1006.0,323.2,0.8,2.4,340.7,0.13,23.4,26.0,"14:46:56",1
"21/07/12","15:00",0.0,27.1,80.9,1005.7,266.0,0.6,1.6,314.8,0.13,23.6,25.8,"14:58:32",1
"21/07/12","15:10",0.0,26.9,80.6,1005.5,330.8,0.8,1.9,350.0,0.12,23.3,25.8,"15:06:16",1
"21/07/12","15:20",0.0,26.6,80.7,1006.0,321.8,1.2,2.5,339.6,0.10,23.0,25.9,"15:11:28",1
"21/07/12","15:30",0.0,26.6,80.9,1006.2,330.0,1.5,3.3,341.2,0.12,23.1,25.9,"15:27:52",1
"21/07/12","15:40",0.0,26.3,80.8,1005.7,318.5,1.3,2.9,335.5,0.09,22.8,26.0,"15:37:12",1
"21/07/12","15:50",0.0,26.3,80.6,1005.7,324.1,1.2,2.6,342.5,0.08,22.7,25.9,"15:45:20",1
"21/07/12","16:00",0.0,26.3,80.5,1005.7,329.4,1.6,3.2,341.4,0.10,22.7,25.7,"15:54:24",1
"21/07/12","16:10",0.0,26.5,79.7,1005.5,247.9,0.5,1.7,322.4,0.10,22.7,25.9,"16:00:16",1
"21/07/12","16:20",0.0,26.7,78.2,1005.5,344.9,0.8,2.1,345.7,0.11,22.6,26.0,"16:19:20",1
"21/07/12","16:30",0.0,27.0,76.3,1005.2,340.5,1.0,2.2,348.9,0.12,22.5,25.8,"16:23:52",1
"21/07/12","16:40",0.0,27.4,75.5,1005.5,342.7,1.2,2.4,344.1,0.13,22.7,26.1,"16:37:04",1
"21/07/12","16:50",0.0,27.2,75.0,1005.5,342.6,1.7,3.5,347.4,0.11,22.4,26.1,"16:45:36",1
"21/07/12","17:00",0.0,26.9,75.2,1005.7,341.8,1.8,3.4,348.6,0.08,22.2,25.8,"16:57:04",1
"21/07/12","17:10",0.0,27.0,76.0,1005.5,334.4,1.6,2.7,344.3,0.08,22.4,26.0,"17:06:40",1
"21/07/12","17:20",0.0,27.1,75.7,1005.5,322.9,1.5,2.1,309.0,0.09,22.5,26.0,"17:13:44",1
"21/07/12","17:30",0.0,27.3,75.6,1005.2,305.7,1.0,1.7,308.2,0.08,22.7,26.0,"17:21:12",1
"21/07/12","17:40",0.0,27.3,75.5,1005.2,317.7,1.0,1.9,331.7,0.07,22.6,26.0,"17:37:36",1
"21/07/12","17:50",0.0,27.5,74.3,1005.5,294.6,0.8,2.2,256.6,0.07,22.6,26.0,"17:48:32",1
"21/07/12","18:00",0.0,27.4,73.5,1005.5,298.2,0.7,1.6,307.0,0.05,22.3,25.9,"17:55:12",1
"21/07/12","18:10",0.0,27.0,73.8,1005.7,323.7,1.3,2.2,344.5,0.02,22.0,26.1,"18:03:12",1
"21/07/12","18:20",0.0,26.7,74.9,1005.5,325.0,1.0,2.5,340.0,0.02,21.9,26.0,"18:13:36",1
"21/07/12","18:30",0.0,26.5,76.2,1005.7,331.6,1.3,2.2,339.3,0.02,22.0,25.8,"18:25:52",1
"21/07/12","18:40",0.0,26.4,77.6,1006.2,335.4,1.1,2.2,337.0,0.02,22.2,26.0,"18:33:28",1
"21/07/12","18:50",0.0,26.1,78.6,1006.2,320.6,1.1,1.8,294.3,0.01,22.1,25.8,"18:48:00",1
"21/07/12","19:00",0.0,25.9,79.5,1006.2,323.3,1.3,2.7,332.2,0.00,22.1,25.9,"18:56:32",1
"21/07/12","19:10",0.0,25.5,80.3,1006.2,324.7,1.0,1.9,334.4,0.00,21.9,25.7,"19:02:24",1
"21/07/12","19:20",0.0,25.3,80.9,1006.2,315.4,1.1,2.7,335.9,0.00,21.8,25.9,"19:10:02",1
"21/07/12","19:30",0.0,25.0,81.6,1006.7,328.6,1.6,2.7,306.7,0.00,21.7,26.0,"19:26:32",1
"21/07/12","19:40",0.0,24.7,82.1,1006.4,318.2,1.0,1.7,323.6,0.00,21.5,25.9,"19:33:12",1
"21/07/12","19:50",0.0,24.4,82.7,1006.7,326.8,1.1,2.0,335.2,0.00,21.3,25.8,"19:45:12",1
"21/07/12","20:00",0.0,24.1,83.4,1006.9,302.1,1.0,1.7,321.6,0.00,21.2,25.8,"19:50:48",1
"21/07/12","20:10",0.0,23.9,84.2,1006.2,294.2,0.8,2.0,324.6,0.00,21.1,25.5,"20:09:44",1
"21/07/12","20:20",0.0,23.6,84.9,1006.2,287.8,1.1,1.7,317.5,0.00,21.0,25.7,"20:10:08",1
"21/07/12","20:30",0.0,23.4,85.7,1006.4,330.0,1.3,1.9,337.7,0.00,20.9,25.9,"20:25:04",1
"21/07/12","20:40",0.0,23.2,86.5,1006.7,310.5,1.3,1.9,317.2,0.00,20.9,25.9,"20:37:28",1
"21/07/12","20:50",0.0,23.0,87.1,1006.9,306.5,1.5,2.2,313.4,0.00,20.8,26.0,"20:40:08",1
"21/07/12","21:00",0.0,23.0,87.3,1007.4,308.9,1.2,1.9,325.6,0.00,20.8,25.7,"20:52:40",1
"21/07/12","21:10",0.0,22.9,87.5,1007.6,303.7,1.1,1.7,322.1,0.00,20.8,25.6,"21:09:52",1
"21/07/12","21:20",0.0,22.8,87.8,1007.8,326.1,1.5,2.1,330.1,0.00,20.7,25.7,"21:18:16",1
"21/07/12","21:30",0.0,22.7,88.1,1008.1,336.4,1.6,2.9,339.0,0.00,20.7,25.7,"21:20:08",1
"21/07/12","21:40",0.0,22.6,88.5,1008.1,335.3,1.8,3.1,322.2,0.00,20.6,25.6,"21:30:02",1
"21/07/12","21:50",0.0,22.5,88.7,1008.1,331.6,1.7,3.2,342.9,0.00,20.6,25.7,"21:40:08",1
"21/07/12","22:00",0.0,22.4,89.1,1008.1,321.1,1.8,2.7,299.9,0.00,20.6,25.5,"21:59:36",1
"21/07/12","22:10",0.0,22.2,89.2,1007.8,300.5,1.5,2.4,319.1,0.00,20.4,25.4,"22:01:12",1
"21/07/12","22:20",0.0,22.2,89.5,1007.6,308.9,1.8,3.4,314.7,0.00,20.4,25.6,"22:19:52",1
"21/07/12","22:30",0.0,22.2,89.5,1008.1,321.5,2.0,3.6,345.9,0.00,20.4,25.4,"22:26:32",1
"21/07/12","22:40",0.0,22.2,89.5,1007.8,338.4,1.3,2.2,344.7,0.00,20.4,25.4,"22:34:40",1
"21/07/12","22:50",0.0,22.1,89.7,1008.1,344.6,1.3,2.4,340.2,0.00,20.4,25.2,"22:44:56",1
"21/07/12","23:00",0.0,22.0,89.8,1007.6,333.9,1.7,2.5,346.1,0.00,20.3,25.2,"22:59:12",1
"21/07/12","23:10",0.0,22.1,89.9,1008.1,325.1,2.2,3.6,323.9,0.00,20.4,25.4,"23:03:04",1
"21/07/12","23:20",0.0,22.0,89.9,1007.8,324.4,1.5,2.8,339.5,0.00,20.3,25.1,"23:11:04",1
"21/07/12","23:30",0.0,21.8,89.9,1008.1,300.5,1.6,2.5,324.2,0.00,20.1,25.4,"23:24:24",1
"21/07/12","23:40",0.0,21.7,90.1,1007.8,312.3,1.7,3.5,339.6,0.00,20.0,25.2,"23:38:40",1
"21/07/12","23:50",0.0,21.6,90.3,1007.6,325.0,1.6,2.4,336.9,0.00,20.0,25.2,"23:40:32",1
"21/07/12","24:00",0.0,21.5,90.5,1007.8,316.8,1.5,2.5,327.4,0.00,19.9,25.2,"23:55:28",1
